sat.trackr.live / text

‹ back to catalog

STARLINK-4256

NORAD 52994 · 2022-076J

PAYLOAD ACTIVE UNKNOWN

§ Identity

Operator
Country
US
Launch date
2022-07-07
Launch site
AFETR
Launch vehicle
Mass (kg)
RCS (m²)

Purposes: comms

External: N2YO · Heavens-Above · Gunter

§ Orbital elements

Epoch: 2026-05-25T04:59:04.956000Z

Period
95.44 min
Inclination
53.2132°
Eccentricity
0.0001645
Mean motion
15.08851840 rev/d
Perigee alt
538.6 km
Apogee alt
540.8 km
Semi-major
6,917.8 km
B*
-6.6687e-5
RAAN
110.6203°
Arg perigee
108.4446°
Mean anomaly
251.6724°
Rev number
21,439

§ Raw data

STARLINK-42561 52994U 22076J   26145.20769625 -.00001350  00000+0 -66687-4 0  99982 52994  53.2132 110.6203 0001645 108.4446 251.6724 15.08851840214399

JSON: /api/v1/satellites/52994 · /tle

For live sub-satellite position, see the globe view (requires WebGL).

§ Visibility from observer

Set your observer location to see the next 7 days of passes ≥ 10°. The values pass through the URL so the page stays shareable.

No JS? Fill the form by hand. The geolocation button needs JavaScript.